EW3857 Weather Reports


Display with metric or nautical units.
time (UTC)temp
F
wind
direction
speed
MPH
gust
MPH
rain 1hr
in
rain 24hr
in
rain mn
in
humidity
%
barometer
mb
20260904215917 94 262 0.0 0.0 0.00 0.00 0.00 55 1016.0
20260904215412 94 264 0.0 0.0 0.00 0.00 0.00 55 1016.2
20260904214908 94 264 0.0 0.0 0.00 0.00 0.00 56 1015.8
20260904214404 94 264 0.0 0.0 0.00 0.00 0.00 55 1015.8
20260904213902 94 261 1.0 2.0 0.00 0.00 0.00 55 1015.8
20260904213357 94 265 0.0 0.0 0.00 0.00 0.00 55 1015.9
20260904212853 94 265 0.0 0.0 0.00 0.00 0.00 54 1016.0
20260904212352 94 263 1.0 1.0 0.00 0.00 0.00 53 1016.1
20260904211848 94 264 0.0 0.0 0.00 0.00 0.00 55 1016.0
20260904211344 95 264 1.0 2.0 0.00 0.00 0.00 56 1015.9
20260904210838 95 262 0.0 1.0 0.00 0.00 0.00 54 1016.0
20260904210332 95 262 1.0 1.0 0.00 0.00 0.00 53 1016.0
20260904205828 97 264 0.0 0.0 0.00 0.00 0.00 52 1016.0
20260904205324 96 263 0.0 0.0 0.00 0.00 0.00 51 1016.2
20260904204821 96 263 0.0 1.0 0.00 0.00 0.00 53 1016.3
20260904204316 96 263 0.0 0.0 0.00 0.00 0.00 53 1016.3
20260904203812 97 263 0.0 0.0 0.00 0.00 0.00 52 1016.3
20260904203308 96 261 1.0 1.0 0.00 0.00 0.00 51 1016.5
20260904202804 95 262 0.0 0.0 0.00 0.00 0.00 53 1016.3
20260904202300 95 264 0.0 0.0 0.00 0.00 0.00 55 1016.5
20260904201756 96 260 1.0 2.0 0.00 0.00 0.00 51 1016.6
20260904201255 95 261 1.0 1.0 0.00 0.00 0.00 52 1016.8
20260904200750 95 262 0.0 0.0 0.00 0.00 0.00 55 1016.8
20260904200244 95 262 0.0 0.0 0.00 0.00 0.00 55 1016.9
20260904195743 94 263 0.0 0.0 0.00 0.00 0.00 54 1016.8
20260904195242 94 261 1.0 1.0 0.00 0.00 0.00 54 1017.0
20260904194737 94 257 3.0 3.0 0.00 0.00 0.00 54 1017.3
20260904194236 95 264 0.0 0.0 0.00 0.00 0.00 57 1017.3
20260904193732 96 261 0.0 1.0 0.00 0.00 0.00 54 1017.3
20260904193227 95 262 0.0 1.0 0.00 0.00 0.00 58 1017.2
20260904192723 94 262 1.0 1.0 0.00 0.00 0.00 58 1017.5
20260904192218 95 262 1.0 1.0 0.00 0.00 0.00 57 1017.3
20260904191715 95 263 0.0 0.0 0.00 0.00 0.00 58 1017.5
20260904191211 94 264 0.0 0.0 0.00 0.00 0.00 58 1017.7
20260904190707 93 261 1.0 1.0 0.00 0.00 0.00 58 1017.9
20260904190203 93 261 1.0 1.0 0.00 0.00 0.00 59 1017.7
20260904185659 95 261 1.0 1.0 0.00 0.00 0.00 56 1018.0
20260904185153 94 263 0.0 0.0 0.00 0.00 0.00 60 1017.9
20260904184652 94 262 1.0 1.0 0.00 0.00 0.00 57 1017.9
20260904184148 94 264 0.0 0.0 0.00 0.00 0.00 57 1018.2
20260904183643 94 262 1.0 1.0 0.00 0.00 0.00 59 1018.3
20260904183137 94 264 0.0 0.0 0.00 0.00 0.00 59 1018.5
20260904182633 94 262 1.0 1.0 0.00 0.00 0.00 58 1018.4
20260904182128 93 262 1.0 1.0 0.00 0.00 0.00 60 1018.4
20260904181623 92 259 1.0 1.0 0.00 0.00 0.00 60 1018.5
20260904181118 93 258 2.0 2.0 0.00 0.00 0.00 63 1018.8
20260904180613 93 259 0.0 1.0 0.00 0.00 0.00 62 1018.8
20260904180109 93 261 0.0 0.0 0.00 0.00 0.00 61 1018.6
20260904175607 92 264 1.0 1.0 0.00 0.00 0.00 60 1018.9
20260904175106 93 264 0.0 1.0 0.00 0.00 0.00 59 1018.9
20260904174601 93 261 1.0 2.0 0.00 0.00 0.00 63 1018.9
20260904174058 92 260 1.0 1.0 0.00 0.00 0.00 63 1019.3
20260904173557 92 262 1.0 1.0 0.00 0.00 0.00 63 1019.1
20260904173053 92 259 2.0 2.0 0.00 0.00 0.00 66 1019.3
20260904172549 91 260 1.0 1.0 0.00 0.00 0.00 68 1019.1
20260904172048 91 257 2.0 2.0 0.00 0.00 0.00 66 1019.3
20260904171543 91 258 3.0 3.0 0.00 0.00 0.00 68 1019.4
20260904171039 91 260 2.0 2.0 0.00 0.00 0.00 70 1019.2
20260904170534 91 261 1.0 1.0 0.00 0.00 0.00 71 1019.4
20260904170030 91 261 2.0 2.0 0.00 0.00 0.00 69 1019.4
20260904165529 90 262 1.0 1.0 0.00 0.00 0.00 70 1019.6
20260904165029 91 264 0.0 1.0 0.00 0.00 0.00 70 1019.6
20260904164524 90 264 0.0 0.0 0.00 0.00 0.00 72 1019.6
20260904164020 90 261 1.0 1.0 0.00 0.00 0.00 71 1019.7
20260904163519 89 262 1.0 1.0 0.00 0.00 0.00 72 1019.8
20260904163014 89 262 1.0 1.0 0.00 0.00 0.00 72 1019.8
20260904162509 88 258 1.0 1.0 0.00 0.00 0.00 72 1019.9
20260904162005 88 260 1.0 2.0 0.00 0.00 0.00 74 1020.0
20260904161459 88 256 3.0 3.0 0.00 0.00 0.00 73 1019.9
20260904160955 88 255 3.0 3.0 0.00 0.00 0.00 74 1019.8
20260904160449 88 254 3.0 3.0 0.00 0.00 0.00 73 1020.0
20260904155945 87 254 3.0 3.0 0.00 0.00 0.00 72 1020.0
20260904155445 88 256 2.0 2.0 0.00 0.00 0.00 72 1019.9
20260904154943 88 304 0.0 0.0 0.00 0.00 0.00 72 1020.0
20260904154438 87 264 1.0 1.0 0.00 0.00 0.00 72 1020.0
20260904153933 87 264 0.0 1.0 0.00 0.00 0.00 78 1019.8
20260904153428 87 264 1.0 1.0 0.00 0.00 0.00 76 1020.1
20260904152925 86 263 0.0 1.0 0.00 0.00 0.00 77 1019.8
20260904152420 86 267 0.0 0.0 0.00 0.00 0.00 80 1019.7
20260904151919 85 266 0.0 1.0 0.00 0.00 0.00 80 1019.9
20260904151415 84 268 0.0 0.0 0.00 0.00 0.00 81 1020.0
20260904150909 85 269 0.0 0.0 0.00 0.00 0.00 82 1020.1
20260904150405 84 268 0.0 0.0 0.00 0.00 0.00 81 1019.8
20260904145902 84 269 0.0 0.0 0.00 0.00 0.00 82 1020.1
20260904145359 84 264 1.0 1.0 0.00 0.00 0.00 82 1019.9
20260904144854 84 264 1.0 1.0 0.00 0.00 0.00 83 1019.8
20260904144350 84 268 0.0 1.0 0.00 0.00 0.00 84 1019.9
20260904143845 83 268 0.0 1.0 0.00 0.00 0.00 83 1019.8
20260904143342 83 267 0.0 1.0 0.00 0.00 0.00 84 1019.8
20260904142838 83 264 1.0 1.0 0.00 0.00 0.00 84 1019.7
20260904142333 83 270 0.0 0.0 0.00 0.00 0.00 84 1019.6
20260904141827 82 269 0.0 0.0 0.00 0.00 0.00 84 1019.4
20260904141323 82 270 0.0 1.0 0.00 0.00 0.00 85 1019.6
20260904140819 82 275 2.0 2.0 0.00 0.00 0.00 87 1019.5
20260904140314 82 267 0.0 0.0 0.00 0.00 0.00 87 1019.6
20260904135813 82 273 1.0 1.0 0.00 0.00 0.00 87 1019.7
20260904135308 82 269 0.0 0.0 0.00 0.00 0.00 87 1019.7
20260904134804 82 268 0.0 0.0 0.00 0.00 0.00 88 1019.7
20260904134303 82 268 0.0 0.0 0.00 0.00 0.00 88 1019.5
20260904133759 82 271 0.0 0.0 0.00 0.00 0.00 89 1019.5
20260904133254 81 274 1.0 1.0 0.00 0.00 0.00 88 1019.4
20260904132754 81 271 0.0 1.0 0.00 0.00 0.00 90 1019.6
20260904132249 81 281 1.0 2.0 0.00 0.00 0.00 90 1019.6
20260904131748 81 268 0.0 1.0 0.00 0.00 0.00 91 1019.5
20260904131244 81 286 3.0 3.0 0.00 0.00 0.00 92 1019.5
20260904130743 81 284 3.0 3.0 0.00 0.00 0.00 92 1019.4
20260904130238 81 273 1.0 1.0 0.00 0.00 0.00 92 1019.5
20260904125734 81 280 2.0 2.0 0.00 0.00 0.00 93 1019.5
20260904125229 80 277 1.0 1.0 0.00 0.00 0.00 93 1019.3
20260904124724 80 274 1.0 2.0 0.00 0.00 0.00 93 1019.3
20260904124220 80 270 0.0 0.0 0.00 0.00 0.00 94 1019.4
20260904123715 80 266 1.0 1.0 0.00 0.00 0.00 95 1019.3
20260904123210 80 273 0.0 1.0 0.00 0.00 0.00 98 1019.3
20260904122710 79 274 2.0 2.0 0.00 0.00 0.00 98 1019.2
20260904122205 79 268 0.0 1.0 0.00 0.00 0.00 99 1019.4
20260904121700 78 266 1.0 1.0 0.00 0.00 0.00 99 1019.3
20260904121155 78 269 1.0 1.0 0.00 0.00 0.00 99 1019.3
20260904120652 78 268 0.0 1.0 0.00 0.00 0.00 99 1019.1
20260904120148 77 266 0.0 1.0 0.00 0.00 0.00 99 1019.2
20260904115643 77 266 1.0 1.0 0.00 0.00 0.00 99 1019.2
20260904115137 77 264 1.0 1.0 0.00 0.00 0.00 99 1019.2
20260904114632 77 270 0.0 1.0 0.00 0.00 0.00 99 1019.0
20260904114131 77 266 1.0 1.0 0.00 0.00 0.00 99 1018.9
20260904113626 77 260 1.0 1.0 0.00 0.00 0.00 99 1018.9
20260904113125 77 229 0.0 1.0 0.00 0.00 0.00 99 1018.7
20260904112621 77 257 1.0 1.0 0.00 0.00 0.00 99 1018.9
20260904112117 76 273 0.0 1.0 0.00 0.00 0.00 99 1018.7
20260904111612 76 265 1.0 1.0 0.00 0.00 0.00 99 1018.7
20260904111108 76 264 0.0 0.0 0.00 0.00 0.00 99 1018.9
20260904110603 76 266 0.0 0.0 0.00 0.00 0.00 99 1018.5
20260904110058 76 268 0.0 0.0 0.00 0.00 0.00 99 1018.7
20260904105557 76 264 0.0 0.0 0.00 0.00 0.00 99 1018.6
20260904105052 76 264 0.0 0.0 0.00 0.00 0.00 99 1018.4
20260904104548 76 264 0.0 0.0 0.00 0.00 0.00 99 1018.5
20260904104043 76 231 0.0 0.0 0.00 0.00 0.00 99 1018.4
20260904103539 76 231 0.0 0.0 0.00 0.00 0.00 99 1018.0
20260904103035 76 260 0.0 0.0 0.00 0.00 0.00 99 1018.2
20260904102530 76 265 0.0 0.0 0.00 0.00 0.00 99 1018.2
20260904102025 76 264 0.0 0.0 0.00 0.00 0.00 99 1018.3
20260904101522 76 231 0.0 0.0 0.00 0.00 0.00 99 1017.9
20260904101017 76 264 0.0 0.0 0.00 0.00 0.00 99 1018.0
20260904100513 76 264 0.0 0.0 0.00 0.00 0.00 99 1017.9
20260904100008 76 263 0.0 0.0 0.00 0.00 0.00 99 1017.9
20260904095502 76 263 0.0 0.0 0.00 0.00 0.00 99 1017.9
20260904094957 76 263 0.0 0.0 0.00 0.00 0.00 99 1017.9
20260904094452 76 263 0.0 0.0 0.00 0.00 0.00 99 1017.9
20260904093948 76 263 0.0 0.0 0.00 0.00 0.00 99 1017.7
20260904093443 76 260 0.0 0.0 0.00 0.00 0.00 99 1017.9
20260904092933 76 260 0.0 0.0 0.00 0.00 0.00 99 1018.2
20260904092429 76 229 0.0 0.0 0.00 0.00 0.00 99 1017.9
20260904091925 76 273 0.0 0.0 0.00 0.00 0.00 99 1017.7
20260904091421 76 258 0.0 0.0 0.00 0.00 0.00 99 1017.7
20260904090915 76 264 0.0 0.0 0.00 0.00 0.00 99 1017.8
20260904090411 76 263 0.0 0.0 0.00 0.00 0.00 99 1017.8
20260904085906 76 258 0.0 0.0 0.00 0.00 0.00 99 1017.8
20260904085401 76 264 0.0 0.0 0.00 0.00 0.00 99 1017.9
20260904084856 76 264 0.0 0.0 0.00 0.00 0.00 99 1017.6
20260904084352 76 264 0.0 0.0 0.00 0.00 0.00 99 1017.8
20260904083847 76 258 0.0 0.0 0.00 0.00 0.00 99 1017.8
20260904083343 76 273 0.0 0.0 0.00 0.00 0.00 99 1018.2
20260904082839 76 273 0.0 0.0 0.00 0.00 0.00 99 1017.9
20260904082333 76 273 0.0 0.0 0.00 0.00 0.00 99 1017.8
20260904081828 76 273 0.0 0.0 0.00 0.00 0.00 99 1017.9
20260904081324 76 272 0.0 0.0 0.00 0.00 0.00 99 1017.9
20260904080820 76 272 0.0 0.0 0.00 0.00 0.00 99 1017.7
20260904080315 76 272 0.0 0.0 0.00 0.00 0.00 99 1017.8
20260904075811 76 272 0.0 0.0 0.00 0.00 0.00 99 1017.8
20260904075307 76 272 0.0 0.0 0.00 0.00 0.00 99 1017.7
20260904074805 76 268 0.0 0.0 0.00 0.00 0.00 99 1017.7
20260904074300 76 272 0.0 0.0 0.00 0.00 0.00 99 1017.7
20260904073756 76 272 0.0 0.0 0.00 0.00 0.00 99 1018.0
20260904073251 76 272 0.0 0.0 0.00 0.00 0.00 99 1017.9
20260904072748 76 313 0.0 0.0 0.00 0.00 0.00 99 1017.8
20260904072246 76 267 0.0 0.0 0.00 0.00 0.00 99 1017.7
20260904071743 76 267 0.0 0.0 0.00 0.00 0.00 99 1017.7
20260904071237 77 267 0.0 0.0 0.00 0.00 0.00 99 1017.9
20260904070732 77 270 0.0 0.0 0.00 0.00 0.00 99 1017.7
20260904070231 77 266 0.0 0.0 0.00 0.00 0.00 99 1017.7
20260904065726 77 266 0.0 0.0 0.00 0.00 0.00 98 1017.7
20260904065223 77 266 0.0 0.0 0.00 0.00 0.00 98 1017.8
20260904064722 77 266 0.0 0.0 0.00 0.00 0.00 98 1018.0
20260904064218 76 266 0.0 0.0 0.00 0.00 0.00 98 1018.0
20260904063714 76 266 0.0 0.0 0.00 0.00 0.00 98 1017.9
20260904063210 76 266 0.0 0.0 0.00 0.00 0.00 98 1017.9
20260904062706 76 266 0.0 0.0 0.00 0.00 0.00 98 1018.2
20260904062201 76 266 0.0 0.0 0.00 0.00 0.00 98 1017.9
20260904061656 76 266 0.0 0.0 0.00 0.00 0.00 98 1018.0
20260904061152 76 266 0.0 0.0 0.00 0.00 0.00 98 1018.0
20260904060649 76 266 0.0 0.0 0.00 0.00 0.00 97 1018.0
20260904060144 76 267 0.0 0.0 0.00 0.00 0.00 97 1018.3
20260904055639 76 267 0.0 0.0 0.00 0.00 0.00 97 1018.0
20260904055134 76 267 0.0 0.0 0.00 0.00 0.00 97 1017.9
20260904054629 76 267 0.0 0.0 0.00 0.00 0.00 97 1018.2
20260904054125 76 266 0.0 0.0 0.00 0.00 0.00 97 1018.2
20260904053620 76 267 0.0 0.0 0.00 0.00 0.00 97 1017.9
20260904053115 76 267 0.0 0.0 0.00 0.00 0.00 97 1018.4
20260904052612 76 267 0.0 0.0 0.00 0.00 0.00 96 1018.4
20260904052108 76 267 0.0 0.0 0.00 0.00 0.00 96 1018.0
20260904051604 76 268 0.0 0.0 0.00 0.00 0.00 96 1018.4
20260904051103 76 267 0.0 0.0 0.00 0.00 0.00 96 1018.5
20260904050559 76 267 0.0 0.0 0.00 0.00 0.00 96 1018.3
20260904050055 77 267 0.0 0.0 0.00 0.00 0.00 96 1018.2
20260904045549 77 267 0.0 0.0 0.00 0.00 0.00 95 1018.4
20260904045044 77 267 0.0 0.0 0.00 0.00 0.00 95 1018.3
20260904044540 77 266 0.0 0.0 0.00 0.00 0.00 95 1018.5
20260904044036 77 266 0.0 0.0 0.00 0.00 0.00 95 1018.4
20260904043532 77 266 0.0 0.0 0.00 0.00 0.00 95 1018.6
20260904043027 77 266 0.0 0.0 0.00 0.00 0.00 94 1018.4
20260904042524 77 266 0.0 0.0 0.00 0.00 0.00 94 1018.0
20260904042019 77 266 0.0 0.0 0.00 0.00 0.00 94 1018.4
20260904041509 77 266 0.0 0.0 0.00 0.00 0.00 94 1018.3
20260904041005 77 266 0.0 0.0 0.00 0.00 0.00 94 1017.9
20260904040459 77 266 0.0 0.0 0.00 0.00 0.00 94 1018.2
20260904035955 77 267 0.0 0.0 0.00 0.00 0.00 94 1018.5
20260904035451 77 267 0.0 0.0 0.00 0.00 0.00 94 1018.4
20260904034950 77 267 0.0 0.0 0.00 0.00 0.00 94 1018.5
20260904034445 77 267 0.0 0.0 0.00 0.00 0.00 94 1018.5
20260904033941 77 267 0.0 0.0 0.00 0.00 0.00 93 1018.6
20260904033437 77 267 0.0 0.0 0.00 0.00 0.00 93 1018.5
20260904032933 77 267 0.0 0.0 0.00 0.00 0.00 93 1018.4
20260904032428 78 267 0.0 0.0 0.00 0.00 0.00 93 1018.5
20260904031928 78 267 0.0 0.0 0.00 0.00 0.00 92 1018.6
20260904031423 78 269 0.0 0.0 0.00 0.00 0.00 92 1018.6
20260904030919 78 272 0.0 0.0 0.00 0.00 0.00 92 1018.6
20260904030419 78 272 0.0 0.0 0.00 0.00 0.00 92 1018.9
20260904025915 78 272 0.0 0.0 0.00 0.00 0.00 92 1018.7
20260904025410 78 272 0.0 0.0 0.00 0.00 0.00 92 1018.7
20260904024905 78 272 0.0 0.0 0.00 0.00 0.00 92 1018.7
20260904024400 78 272 0.0 0.0 0.00 0.00 0.00 91 1019.1
20260904023856 78 272 0.0 0.0 0.00 0.00 0.00 91 1018.7
20260904023352 78 272 0.0 0.0 0.00 0.00 0.00 91 1018.9
20260904022851 79 273 0.0 0.0 0.00 0.00 0.00 91 1018.6
20260904022348 78 273 0.0 0.0 0.00 0.00 0.00 90 1018.7
20260904021844 79 273 0.0 0.0 0.00 0.00 0.00 91 1018.8
20260904021339 79 271 0.0 0.0 0.00 0.00 0.00 89 1018.4
20260904020834 79 271 0.0 0.0 0.00 0.00 0.00 89 1018.3
20260904020329 79 271 0.0 0.0 0.00 0.00 0.00 88 1018.4
20260904015828 79 270 0.0 0.0 0.00 0.00 0.00 88 1018.2
20260904015323 79 270 0.0 0.0 0.00 0.00 0.00 89 1018.2
20260904014822 79 270 0.0 0.0 0.00 0.00 0.00 89 1018.3
20260904014317 79 271 0.0 1.0 0.00 0.00 0.00 89 1018.2
20260904013813 80 270 0.0 0.0 0.00 0.00 0.00 89 1018.2
20260904013309 80 269 0.0 1.0 0.00 0.00 0.00 89 1018.0
20260904012805 80 318 1.0 1.0 0.00 0.00 0.00 88 1018.0
20260904012259 80 271 0.0 0.0 0.00 0.00 0.00 88 1018.2
20260904011758 80 270 0.0 0.0 0.00 0.00 0.00 88 1017.9
20260904011253 80 272 0.0 0.0 0.00 0.00 0.00 87 1017.9
20260904010748 81 272 0.0 0.0 0.00 0.00 0.00 86 1017.5
20260904010244 81 271 0.0 0.0 0.00 0.00 0.00 86 1017.7
20260904005739 81 271 0.0 0.0 0.00 0.00 0.00 86 1017.4
20260904005235 81 272 0.0 0.0 0.00 0.00 0.00 85 1017.8
20260904004730 81 272 0.0 0.0 0.00 0.00 0.00 85 1017.5
20260904004225 82 271 0.0 0.0 0.00 0.00 0.00 84 1017.4
20260904003720 82 270 0.0 0.0 0.00 0.00 0.00 84 1017.5
20260904003217 82 270 0.0 0.0 0.00 0.00 0.00 83 1017.5
20260904002712 82 270 0.0 0.0 0.00 0.00 0.00 83 1017.4
20260904002208 82 270 1.0 1.0 0.00 0.00 0.00 82 1017.5
20260904001703 82 251 0.0 0.0 0.00 0.00 0.00 81 1017.5
20260904001202 83 249 0.0 0.0 0.00 0.00 0.00 82 1017.3
20260904000657 84 251 1.0 1.0 0.00 0.00 0.00 79 1017.4
20260904000152 84 259 0.0 0.0 0.00 0.00 0.00 78 1017.1
20260903235651 84 258 0.0 0.0 0.00 0.00 0.00 77 1017.3
20260903235148 84 260 0.0 0.0 0.00 0.00 0.00 77 1017.3
20260903234642 84 260 0.0 0.0 0.00 0.00 0.00 77 1017.2
20260903234139 85 259 0.0 0.0 0.00 0.00 0.00 80 1017.1
20260903233635 86 254 0.0 1.0 0.00 0.00 0.00 75 1017.2
20260903233130 86 270 0.0 1.0 0.00 0.00 0.00 72 1017.2
20260903232624 87 268 0.0 1.0 0.00 0.00 0.00 72 1017.2
20260903232120 87 261 0.0 0.0 0.00 0.00 0.00 71 1017.1
20260903231608 87 39 1.0 1.0 0.00 0.00 0.00 73 1017.3
20260903231103 87 23 3.0 5.0 0.00 0.00 0.00 73 1017.4
20260903230559 86 357 5.0 7.0 0.00 0.00 0.00 72 1017.3
20260903230057 86 35 7.0 8.0 0.00 0.00 0.00 72 1017.4
20260903225554 86 269 0.0 0.0 0.00 0.00 0.00 69 1017.4
20260903225051 86 240 3.0 3.0 0.00 0.00 0.00 67 1017.2
20260903224546 88 147 8.0 9.0 0.00 0.00 0.00 70 1017.3
20260903224042 88 143 11.0 13.0 0.00 0.00 0.00 66 1017.4
20260903223537 91 129 15.0 20.0 0.00 0.00 0.00 59 1017.5
20260903223036 90 119 0.0 0.0 0.00 0.00 0.00 64 1017.4
20260903222531 90 233 0.0 0.0 0.00 0.00 0.00 68 1017.0
20260903222030 90 245 0.0 0.0 0.00 0.00 0.00 68 1017.0
20260903221526 91 205 0.0 0.0 0.00 0.00 0.00 66 1016.6
20260903221022 93 254 0.0 0.0 0.00 0.00 0.00 58 1017.1
20260903220521 94 262 0.0 0.0 0.00 0.00 0.00 58 1017.2